SCP
2 2 1 1 1 1 0 0 0 0 0 0 0 0 0 0 0 0 0 0 0 0 0 0 0 0 0 0 0 0 0 0 0 0 0 0 0 0 0 0 0 0 0
2 2 1 1 1 1 1 0 0 0 0 0 0 0 0 0 0 0 0 0 0 0 0 0 0 0 0 0 0 0 0 0 0 0 0 0 0 0 0 0 0 0 0
2 1 1 1 1 1 1 0 0 0 0 0 0 0 0 0 0 0 0 0 0 0 0 0 0 0 0 0 0 0 0 0 0 0 0 0 0 0 0 0 0 0 0
1 1 1 1 1 1 1 0 0 0 1 1 1 0 0 0 0 0 0 0 0 0 0 0 0 0 0 0 0 0 0 0 0 0 0 0 0 0 0 0 0 0 0
1 1 1 1 1 0 0 0 0 0 1 1 1 1 1 1 1 1 0 0 1 1 1 0 0 0 0 0 0 0 0 0 0 0 0 0 0 0 0 0 0 0 0
2 1 1 1 1 0 1 0 1 1 1 1 1 1 1 1 1 1 1 1 1 1 1 1 1 0 0 0 0 0 0 0 0 0 0 0 0 0 0 0 0 0 0
2 1 1 1 1 1 1 1 1 1 1 1 1 1 1 1 1 1 1 1 1 1 1 1 1 1 1 0 0 0 0 0 0 0 0 1 1 0 0 0 0 0 0
2 2 1 1 1 1 1 1 1 1 1 1 1 1 1 1 1 1 1 2 2 2 2 2 2 1 1 1 1 1 0 0 0 0 1 1 1 1 1 0 0 0 0
3 2 1 1 1 1 1 1 1 1 1 1 1 1 1 1 1 1 1 2 2 2 2 2 2 2 2 1 1 1 1 0 0 0 1 1 2 2 1 1 1 0 0
3 2 2 1 1 1 1 1 1 1 1 1 1 1 1 1 1 1 2 2 2 3 3 3 3 2 2 2 1 1 1 1 0 0 1 2 2 2 2 1 1 1 0
3 3 3 3 2 2 2 2 1 1 1 1 1 1 1 1 1 2 2 2 3 3 3 3 3 3 3 2 2 1 1 1 1 0 1 2 3 3 2 2 1 1 1
5 5 5 5 4 3 3 2 2 2 2 2 2 2 2 2 2 2 2 3 3 4 4 4 4 3 3 2 2 2 2 1 1 1 1 3 4 4 3 2 2 1 1
6 6 6 7 6 5 4 3 3 3 3 3 3 3 3 3 3 3 3 4 4 4 4 4 4 4 3 3 2 2 2 2 1 1 2 3 4 4 3 2 2 2 1
8 7 8 8 8 6 5 4 4 4 4 4 4 4 4 4 4 4 4 5 5 5 5 5 4 4 3 3 3 3 3 2 2 2 2 3 4 4 3 3 2 2 2
10 10 9 10 9 7 6 5 4 4 4 4 4 4 5 6 7 7 6 5 5 5 5 5 5 4 4 3 3 3 3 2 2 2 3 3 4 3 3 2 2 2 2
12 11 10 9 8 7 5 5 4 4 4 4 4 5 5 8 10 9 7 5 4 4 5 5 5 5 5 4 4 3 3 3 3 3 3 3 3 3 2 2 2 2 2
11 10 9 8 7 6 5 5 4 4 4 5 5 5 6 7 9 8 6 4 4 4 4 5 5 5 5 4 4 4 4 3 3 3 3 3 3 3 2 2 2 2 2
10 9 8 6 6 6 6 6 5 4 5 5 5 5 6 6 6 5 4 4 4 4 4 4 4 5 5 5 4 4 4 3 3 3 3 3 3 2 2 2 2 2 2
7 7 6 6 6 6 7 7 6 5 5 5 5 5 5 5 4 4 4 4 4 3 3 4 4 4 5 5 4 4 3 3 3 3 3 3 3 3 3 2 2 2 2
4 4 4 5 5 5 6 7 6 6 5 5 4 5 4 4 4 3 3 3 3 3 3 3 3 4 4 4 4 3 3 3 3 3 3 3 3 3 3 3 2 2 1
2 2 3 3 3 4 4 5 5 5 5 5 4 4 4 4 4 3 3 3 3 2 2 2 3 3 3 3 4 3 2 2 3 3 3 3 2 2 3 3 2 2 2
2 2 2 2 2 2 3 3 3 4 4 4 3 3 3 3 3 3 3 3 3 2 2 2 2 2 3 3 3 3 2 2 2 3 3 2 2 2 2 2 2 2 2
2 2 2 2 2 2 2 2 2 2 2 2 2 2 2 2 2 2 2 2 2 3 2 2 2 2 2 2 2 2 2 2 2 2 2 2 2 1 1 2 2 2 2
1 1 2 2 2 2 2 2 2 1 1 1 1 1 1 1 1 1 2 2 2 2 2 2 2 2 1 1 2 2 2 2 2 2 2 1 1 1 1 2 2 2 2
1 1 1 2 3 3 2 2 1 1 1 1 1 1 1 1 1 1 1 1 1 1 2 2 2 2 1 1 1 1 2 2 2 1 1 1 1 1 1 2 2 2 2
1 1 1 2 3 3 2 1 1 1 1 1 1 0 0 1 1 1 1 1 1 1 1 1 2 2 2 1 1 1 1 1 1 1 1 1 1 1 2 2 2 2 2
Wind_Speed
17 18 19 16 14 12 11 11 11 12 11 11 10 10 10 9 10 9 10 10 9 9 9 9 8 8 8 8 9 10 10 11 11 12 13 13 12 10 9 8 10 13 14
20 18 18 16 14 13 11 11 11 12 11 11 10 10 10 9 9 9 9 8 8 8 8 8 8 8 8 8 9 9 9 9 9 9 11 12 11 10 9 8 11 11 14
20 18 17 16 14 13 12 11 11 11 12 11 11 10 10 9 9 9 8 8 7 7 7 8 8 8 8 8 8 7 7 6 6 6 8 8 9 10 11 14 16 14 13
19 16 15 16 15 13 12 11 10 11 11 11 11 10 10 10 9 9 8 7 7 6 7 8 7 7 7 7 7 6 6 4 4 4 5 5 8 10 10 12 12 13 12
17 15 16 17 15 14 12 11 10 10 11 11 11 10 10 10 9 9 8 7 7 6 7 8 7 7 7 6 6 6 5 4 4 6 3 6 8 10 10 10 10 11 11
17 17 17 16 15 14 12 11 10 10 10 10 10 10 9 9 9 9 8 8 7 7 8 8 8 7 7 6 6 5 5 5 6 7 3 7 9 11 11 9 9 9 10
17 17 16 16 15 13 12 11 10 9 9 9 9 9 9 9 9 9 9 8 8 7 7 8 8 8 8 7 7 6 6 7 8 5 2 7 10 13 12 10 9 8 9
18 17 15 15 14 13 12 11 10 9 9 9 9 9 9 9 9 9 9 9 9 9 9 8 8 9 9 9 8 8 7 9 9 8 4 7 14 14 13 11 9 9 8
18 17 14 13 12 12 11 10 10 9 9 9 9 9 9 9 9 9 9 10 10 10 10 10 10 10 10 10 10 9 9 11 9 7 5 7 16 16 14 12 11 10 10
17 16 14 13 12 10 10 11 10 10 9 9 9 9 9 10 10 11 11 11 12 12 12 12 12 12 12 12 12 11 11 10 9 10 5 8 19 18 16 14 12 12 11
13 13 12 13 12 10 10 12 11 10 10 9 9 11 10 9 11 11 15 16 16 15 14 14 14 13 13 13 14 14 12 7 9 8 6 11 20 19 17 15 14 13 13
8 9 9 9 9 7 6 8 7 8 9 9 8 9 8 8 7 10 13 19 19 18 17 16 15 14 12 9 13 15 8 10 10 8 6 16 19 19 18 16 14 13 14
5 4 8 7 7 3 1 4 3 3 5 8 8 7 7 6 5 7 4 9 12 15 11 12 13 10 10 8 7 9 10 10 7 7 6 18 20 19 18 16 15 14 14
5 4 6 7 6 3 4 2 1 1 1 3 5 6 5 3 4 4 4 3 6 6 8 8 7 11 11 11 10 10 12 9 7 5 6 17 18 18 18 16 15 15 15
7 6 7 8 7 5 4 4 4 4 4 4 2 2 3 3 4 4 4 4 5 4 6 8 8 10 10 10 9 9 10 11 9 6 5 15 17 17 17 17 17 17 16
9 9 7 7 7 4 3 2 3 4 3 4 3 4 3 2 3 4 5 5 6 6 6 5 7 7 7 7 8 8 9 8 8 6 5 10 16 17 16 17 18 18 18
9 9 7 6 6 4 4 4 3 3 4 3 3 4 4 4 4 4 4 5 6 6 7 6 7 6 6 7 8 8 7 7 6 7 6 5 8 15 17 18 18 18 19
9 8 8 7 7 5 4 4 3 3 3 3 3 3 5 6 5 5 4 5 5 5 5 6 7 6 6 6 6 6 6 6 8 8 7 6 6 8 14 20 20 19 20
7 7 6 7 7 6 5 4 3 2 2 2 2 2 3 5 5 5 4 4 5 4 5 7 6 5 6 7 7 6 6 6 7 9 8 9 9 9 8 14 21 21 21
7 6 5 5 6 6 5 4 3 3 3 2 1 1 3 4 5 5 5 4 4 3 4 4 5 5 6 7 9 9 7 8 7 8 9 9 9 11 11 12 12 15 21
6 5 4 5 5 4 4 5 4 4 4 3 1 2 3 4 4 4 5 4 4 3 4 4 4 5 5 5 6 6 6 8 9 8 8 7 9 11 11 10 9 8 10
5 3 2 4 4 4 4 4 4 4 4 3 2 1 2 3 3 4 4 4 4 3 4 4 4 3 4 4 4 4 4 5 7 10 8 8 9 8 9 11 10 10 8
2 1 2 2 2 4 5 5 5 5 5 4 4 2 1 2 3 3 3 3 4 3 4 4 3 4 3 4 4 4 3 4 3 6 10 8 8 6 7 7 10 11 10
0 0 1 1 2 3 4 5 7 7 6 6 4 4 5 4 4 3 3 3 3 3 4 4 3 2 3 4 4 4 4 1 1 1 4 6 7 6 6 6 8 9 9
2 2 1 1 2 3 4 6 6 7 6 6 7 8 7 6 5 4 3 2 2 2 3 4 4 3 2 4 4 4 4 4 4 2 3 3 4 4 4 4 2 4 7
3 4 3 3 4 4 5 6 6 7 7 8 9 9 8 5 4 4 3 2 2 2 2 3 3 4 3 5 5 4 3 3 3 3 3 4 5 4 5 4 3 3 3
Wind_Direction
118 130 134 131 127 125 124 131 141 144 140 136 132 129 126 122 119 117 113 111 111 112 111 110 110 103 94 86 81 81 83 84 84 87 89 89 87 85 84 93 109 99 104
122 129 134 131 129 126 125 129 138 144 145 142 139 138 136 134 132 129 126 124 122 119 116 114 113 109 102 99 96 94 93 95 100 106 110 102 93 83 69 69 104 107 108
120 129 134 132 131 129 127 129 138 145 148 147 145 145 144 143 142 141 140 138 135 130 125 122 119 114 111 109 109 109 109 114 125 139 154 127 108 90 82 90 102 110 109
124 135 134 134 133 132 130 132 139 147 151 151 151 151 152 151 152 153 153 153 153 147 138 133 129 125 122 122 124 126 131 144 167 194 212 146 123 106 99 101 108 112 113
125 127 131 139 137 137 136 136 142 149 154 155 156 157 158 159 160 162 165 166 166 161 153 147 143 140 139 139 143 148 157 181 218 244 244 105 106 123 115 115 118 120 121
129 129 136 142 142 142 143 145 148 152 156 160 161 162 164 166 170 173 173 175 176 172 164 159 156 155 157 159 166 173 188 209 236 236 203 128 123 137 131 129 128 129 129
133 130 139 144 145 147 149 152 154 156 159 164 167 171 175 178 183 185 181 181 180 178 176 171 170 170 172 177 184 194 212 230 250 262 176 125 134 146 145 145 143 140 139
132 132 137 145 147 151 155 159 162 165 168 174 179 182 187 191 194 197 193 190 190 189 185 184 184 183 184 189 196 204 220 243 239 249 196 137 145 153 154 159 160 159 157
132 131 144 149 153 157 162 168 173 177 181 186 191 194 198 203 206 207 205 204 203 200 196 194 194 196 195 198 203 210 221 238 269 277 229 146 156 159 162 168 174 175 174
133 138 151 154 156 164 171 178 183 188 193 198 204 209 212 217 220 220 217 213 213 211 207 205 204 204 204 205 209 213 221 236 250 260 250 166 163 165 168 175 184 187 186
133 138 155 153 158 174 178 175 182 195 202 207 213 219 221 225 221 217 223 216 212 213 213 213 213 212 210 212 215 216 218 226 234 242 247 172 168 170 173 179 189 196 195
124 138 142 143 148 175 182 153 183 195 194 206 214 206 212 229 243 241 216 212 213 213 215 218 219 218 216 218 216 215 216 222 239 238 220 171 171 175 178 182 190 199 201
121 121 120 114 120 152 115 146 194 206 184 201 223 213 214 227 244 255 239 204 209 213 216 217 218 221 219 219 215 198 212 221 221 235 203 172 174 179 182 185 192 200 204
95 69 65 92 93 51 27 356 301 297 202 208 212 223 227 226 248 269 275 239 202 207 210 216 211 214 221 221 219 208 206 218 229 222 188 177 177 182 185 188 195 202 205
74 60 55 60 64 47 27 348 344 334 328 313 317 260 261 252 254 261 271 283 277 250 218 214 219 216 215 221 221 216 214 216 229 230 184 181 181 188 192 195 200 207 209
57 49 49 59 60 48 30 347 317 317 317 316 325 330 318 291 272 271 269 267 268 269 268 242 232 230 219 221 225 222 220 221 224 231 203 188 190 194 199 202 206 211 213
59 50 38 55 55 40 13 350 331 316 334 336 334 335 339 322 298 280 268 263 258 258 264 268 260 251 231 221 225 230 223 224 227 228 222 202 197 204 207 208 208 211 213
56 53 40 33 33 27 17 346 332 338 343 335 341 355 356 339 323 305 284 273 271 264 260 262 257 252 251 242 227 229 229 222 224 226 221 213 207 213 215 215 211 210 212
62 58 54 43 25 6 354 335 326 320 321 319 341 14 355 340 329 309 290 286 285 272 261 261 260 251 249 250 244 233 231 226 223 225 217 218 216 215 210 212 212 210 211
75 63 53 52 29 357 5 344 348 343 344 327 352 38 10 345 337 326 304 304 299 295 289 272 269 266 255 250 249 243 226 222 217 220 217 217 218 221 216 209 205 212 214
86 77 62 47 36 4 16 347 339 341 332 313 313 53 14 343 340 321 319 323 310 297 294 286 270 269 259 247 241 248 242 225 214 213 212 214 216 220 218 205 192 196 205
98 90 86 51 28 3 6 319 303 322 306 294 347 38 12 349 337 327 335 320 314 309 296 286 276 267 267 244 227 227 236 229 216 213 205 210 215 215 211 204 190 194 197
113 94 61 51 5 1 344 321 335 324 309 322 330 318 350 327 310 307 306 311 313 308 306 300 273 261 267 274 243 222 222 226 212 202 202 204 203 206 207 200 191 191 196
174 140 95 55 15 357 337 332 329 314 314 317 317 320 321 304 284 277 275 289 307 308 310 312 316 278 258 268 275 251 252 269 254 229 204 200 195 199 206 206 196 184 188
327 346 2 43 21 354 338 319 315 313 317 315 318 310 304 290 269 253 243 244 275 293 311 314 317 306 282 271 271 279 267 252 232 225 214 201 194 193 195 205 186 167 178
316 316 331 28 16 357 335 323 315 315 313 309 300 292 290 285 281 280 266 234 258 274 295 298 301 302 288 277 275 271 271 258 241 238 219 200 192 196 180 181 182 163 157